Flag for Jordan Weather past 2 weeks in Amman, Jordan

Now
77 °F

Haze.


Feels Like: 77 °F
Forecast: 68 / 90 °F
Wind: 8 mph from Southwest

Location: Amman Airport

Current Time: Aug 1, 2014 at 7:37:06 AM

Latest Report: Aug 1, 2014 at 7:00 AM


Visibility: 2 mi

Pressure: 29.83 "Hg

Humidity: 18%

Dew point: 30 °F

Location of AmmanLocation

Historic Weather in Amman — Graph

°F

Amman temperature yesterday

Maximum temperature yesterday: 91 °F (at 3:00 PM)
Minimum temperature yesterday: 70 °F (at 6:00 AM)
Average temperature yesterday: 81 °F

Past Weeks' High & Low Weather Summary

 TemperatureHumidityPressure
High91 °F (Jul 31, 3:00 PM)88% (Jul 21, 6:00 AM)30.01 "Hg (Jul 21, 6:00 AM)
Low64 °F (Jul 18, 5:00 AM)18% (Jul 24, 12:00 PM)29.80 "Hg (Jul 25, 4:00 PM)
Average77 °F46%29.88 "Hg
* Reported Jul 17 6:00 AM — Aug 1 6:00 AM, Amman, Weather by CustomWeather, © 2014

Note: Actual official high and low records may vary slightly from our data, if they occured in-between our weather recording intervals... More about our weather records

Advertising

Amman weather history for previous 24 hours

 ConditionsComfort  
Time TempWeatherWind HumidityBarometerVisibility
6:00 AM
Aug 1
75 °FHaze.8 mph22%29.83 "Hg3 mi
5:00 AM77 °FHaze.6 mph26%29.83 "Hg3 mi
4:00 AM77 °FHaze.5 mph26%29.83 "Hg3 mi
3:00 AM77 °FHaze.5 mph26%29.83 "Hg3 mi
2:00 AM79 °FHaze.10 mph23%29.83 "Hg3 mi
1:00 AM77 °FHaze.9 mph34%29.83 "Hg3 mi
12:00 AM79 °FHaze.8 mph39%29.83 "Hg3 mi
11:00 PM
Jul 31
79 °FHaze.8 mph48%29.83 "Hg3 mi
10:00 PM77 °FHaze.No wind57%29.83 "Hg3 mi
9:00 PM79 °FHaze.7 mph54%29.83 "Hg3 mi
8:00 PM82 °FHaze.12 mph40%29.83 "Hg3 mi
7:00 PM84 °FHaze.16 mph40%29.83 "Hg3 mi
6:00 PM88 °FHaze.16 mph31%29.80 "Hg3 mi
5:00 PM90 °FClear.15 mph29%29.83 "Hg4 mi
4:00 PM90 °FClear.14 mph26%29.86 "Hg4 mi
3:00 PM91 °FClear.14 mph28%29.86 "Hg4 mi
2:00 PM90 °FClear.12 mph24%29.86 "Hg4 mi
1:00 PM88 °FClear.12 mph27%29.86 "Hg4 mi
12:00 PM86 °FHaze.9 mph29%29.86 "Hg3 mi
11:00 AM84 °FHaze.12 mph27%29.86 "Hg3 mi
10:00 AM81 °FHaze.9 mph30%29.86 "Hg3 mi
9:00 AM79 °FHaze.5 mph32%29.86 "Hg3 mi
8:00 AM72 °FHaze.No wind36%29.86 "Hg4 mi
7:00 AM70 °FHaze.No wind40%29.86 "Hg4 mi
Weather by CustomWeather, © 2014

See weather overviewHow to use our weather pages